Regional Weather Roundup
Issued by NWS New Orleans/Baton Rouge, LA

Home | Current Version | Previous Version | Text Only | Print | Product List | Glossary On
Versions: 1 2 3 4 5 6 7 8 9 10 11 12 13 14 15 16 17 18 19 20 21 22 23 24 25 26 27 28 29 30 31 32 33 34 35 36 37 38 39 40 41 42 43 44 45 46 47 48 49 50
046
ASUS44 KLIX 222206
RWRLIX
NEW ORLEANS REGIONAL WEATHER ROUNDUP
NATIONAL WEATHER SERVICE NEW ORLEANS LA
500 PM CDT SUN APR 22 2018

NOTE: "FAIR" INDICATES FEW OR NO CLOUDS BELOW 12,000 FEET WITH NO
      SIGNIFICANT WEATHER AND/OR OBSTRUCTIONS TO VISIBILITY.
      SKY/WX - SKY CONDITION AND SIGNIFICANT WEATHER.
      TMP - AIR TEMPERATURE.     DP    - DEWPOINT TEMPERATURE.
      RH  - RELATIVE HUMIDITY.   PRES  - PRESSURE.
      HI  - HEAT INDEX.          WCI   - WIND CHILL INDEX.

*  THESE STATIONS ARE NOT NWS OR FAA STATIONS AND ARE NOT UNDER
   NWS QUALITY CONTROL.

LAZ038-040-048-061>063-065>067-069-222300-
SOUTHEAST LOUISIANA

CITY           SKY/WX    TMP DP  RH WIND       PRES   REMARKS
N.O. INTL ARPT FAIR      80  63  55 W17G26    29.84F
N.O. LAKEFRONT FAIR      75  66  73 NW12      29.85R
N.O. DOWNTOWN* FAIR      80  60  50 W9        29.85S
RESERVE*       FAIR      83  60  45 W12       29.84F
SLIDELL        FAIR      78  62  57 VRB7      29.83R
BATON ROUGE    FAIR      75  61  61 NW14G25   29.86S
BOOTHVILLE     FAIR      76  70  82 W15G23    29.86F HAZE
BELLE CHASSE   FAIR      79  65  62 W13G20    29.83S
BOGALUSA*      MOCLDY    78  61  55 NW10G18   29.84S
GALLIANO*      FAIR      78  65  63 W14G23    29.85S
NEW ROADS*     FAIR      71  61  71 NW12      29.89S
GONZALES*      FAIR      79  60  53 NW13G20   29.84S
HAMMOND*       PTSUNNY   77  61  57 NW13G21   29.84S
HOUMA*         NOT AVBL
PORT FOURCHON* CLEAR     75  68  78 W18G26    29.87S

$$

MSZ070-080>082-222300-
SOUTHERN MISSISSIPPI

CITY           SKY/WX    TMP DP  RH WIND       PRES   REMARKS
MCCOMB         PTSUNNY   74  62  66 NW12      29.84S
GULFPORT       PTSUNNY   79  65  62 W12G22    29.81S
BILOXI         FAIR      74  69  82 SW17      29.81S
PASCAGOULA     FAIR      75  66  73 SW7G17    29.83F
STENNIS ARPT*  MOSUNNY   79  63  57 NW12G21   29.83R

$$

COASTAL OBSERVATIONS
LAKE AND NEARSHORE STATIONS

STATION/POSITION TIME  SKY/WX   TEMP    WIND        PRES    WAVE
                                AIR SEA DIR/SP/G            HT/PER
                 (UTC)          (F)     (DEG/KT/KT) (MB)    (FT/S)
WAVELAND YACHT   2148            78 70  310/ 10/ 15 1009.9
GRAND ISLE       2142            74 73  270/ 13/ 18 1011.3
SOUTHWEST PASS   2148            71 59  260/ 14/ 16 1012.2
NEW CANAL        2142            75 70  290/  3/  6 1010.4
SHELL BEACH      2142            74 74  310/ 17/ 24 1010.4

OFFSHORE STATIONS

STATION/POSITION TIME  SKY/WX   TEMP    WIND        PRES    WAVE
                                AIR SEA DIR/SP/G            HT/PER
                 (UTC)          (F)     (DEG/KT/KT) (MB)    (FT/S)
64 S DAUPHIN ISL 2150               73  210/ 10/ 12 1012.1    3/ 5

$$





USA.gov is the U.S. government's official web portal to all federal, state and local government web resources and services.